Hourly Data Report for November 22, 2019

QUALICUM BEACH AIRPORT
BRITISH COLUMBIA
Current Station Operator: ECCC - MSC

49°20'14.000" N
124°23'38.000" W
58.20 m
1026562
71766
VOQ

Download Data

Hourly Data (November 2019)
Hourly Data Report for November 22, 2019
TIME
LST
Temp Definition
°C
Dew Point Definition
°C
Rel Hum Definition
%
Precip. Amount Definition
mm

Wind Dir Definition
10's deg

Wind Spd Definition
km/h
Visibility Definition
km
Stn Press Definition
kPa
Hmdx Definition


Wind Chill Definition


Weather Definition


00:00 0.0 -0.1 99 LegendMM 25 2   101.34   -1 LegendNANA
01:00 -0.5 -0.6 99 LegendMM 27 3   101.43   -1 LegendNANA
02:00 -0.8 -0.8 100 LegendMM 24 2   101.41   -1 LegendNANA
03:00 -0.7 -0.8 99 LegendMM 26 3   101.50   -2 LegendNANA
04:00 -0.9 -0.9 100 LegendMM 25 2   101.51   -2 LegendNANA
05:00 -1.7 -1.7 100 LegendMM 0 1   101.51   -2 LegendNANA
06:00 -1.4 -1.5 100 LegendMM 21 2   101.55   -2 LegendNANA
07:00 -1.9 -1.9 100 LegendMM 23 2   101.64   -3 LegendNANA
08:00 -1.5 -1.5 100 LegendMM 25 2   101.71   -2 LegendNANA
09:00 0.3 0.1 99 LegendMM 25 1   101.77     LegendNANA
10:00 3.2 2.8 97 LegendMM 15 2   101.77     LegendNANA
11:00 6.5 5.1 91 LegendMM 13 3   101.85     LegendNANA
12:00 7.0 4.8 86 LegendMM 10 7   101.85     LegendNANA
13:00 6.8 4.4 85 LegendMM 9 9   101.83     LegendNANA
14:00 6.8 4.6 86 LegendMM 10 7   101.77     LegendNANA
15:00 6.8 4.7 87 LegendMM 10 7   101.79     LegendNANA
16:00 6.0 4.5 90 LegendMM 12 4   101.81     LegendNANA
17:00 4.7 4.0 95 LegendMM 14 4   101.81     LegendNANA
18:00 4.4 3.8 96 LegendMM 25 3   101.83     LegendNANA
19:00 4.6 4.1 97 LegendMM   0   101.84     LegendNANA
20:00 4.6 4.0 96 LegendMM 12 2   101.85     LegendNANA
21:00 4.8 4.3 97 LegendMM 0 1   101.83     LegendNANA
22:00 4.8 4.3 97 LegendMM 26 3   101.87     LegendNANA
23:00 4.4 4.0 97 LegendMM 15 8   101.83     LegendNANA

Notes on Data Quality.

Legend

  • E = Estimated
  • M = Missing
  • NA = Not Available*
  • [empty] = Indicates an unobserved value
Date modified: